sat.trackr.live / text

‹ back to catalog

UNKNOWN

NORAD 87054

UNKNOWN UNKNOWN UNKNOWN

§ Identity

Operator
Country
Launch date
Launch site
Launch vehicle
Mass (kg)
RCS (m²)

External: N2YO · Heavens-Above

§ Orbital elements

Epoch: 2026-05-20T12:24:30.239424Z

Period
102.00 min
Inclination
100.0858°
Eccentricity
0.0010906
Mean motion
14.11761944 rev/d
Perigee alt
845.5 km
Apogee alt
861.2 km
Semi-major
7,231.5 km
B*
6.5306e-4
RAAN
44.4428°
Arg perigee
284.7069°
Mean anomaly
75.2889°
Rev number
63,872

§ Raw data

UNKNOWN1 87054U          26140.51701666  .00001136  00000+0  65306-3 0  99922 87054 100.0858  44.4428 0010906 284.7069  75.2889 14.11761944638729

JSON: /api/v1/satellites/87054 · /tle

For live sub-satellite position, see the globe view (requires WebGL).

§ Visibility from observer

Set your observer location to see the next 7 days of passes ≥ 10°. The values pass through the URL so the page stays shareable.

No JS? Fill the form by hand. The geolocation button needs JavaScript.